Weather Roundup
Issued by NWS Springfield, MO

Home | Current Version | Previous Version | Text Only | Print | Product List | Glossary On
Versions: 1 2 3 4 5 6 7 8 9 10 11 12 13 14 15 16 17 18 19 20 21 22 23 24 25 26 27 28 29 30 31 32 33 34 35 36 37 38 39 40 41 42 43 44 45 46 47 48 49 50
000
NZUS99 KSGF 280607
HRRSGF

HOURLY WEATHER
NATIONAL WEATHER SERVICE SPRINGFIELD MO
100 AM CDT THU AUG 28 2014

......SGF CWA......

CITY           SKY/WX    TMP DP  RH WIND       PRES   REMARKS
SPRINGFIELD    FAIR      75  68  78 S7        30.05S
6HR MIN TEMP:  75; 6HR MAX TEMP:  85;

JOPLIN         FAIR      77  69  76 S7        30.02F
6HR MIN TEMP:  76; 6HR MAX TEMP:  85;

WEST PLAINS    FAIR      71  67  87 CALM      30.09S
6HR MIN TEMP:  71; 6HR MAX TEMP:  83;

ROLLA          FAIR      72  66  81 SE8       30.05F
6HR MIN TEMP:  71; 6HR MAX TEMP:  76;

OSAGE BEACH    FAIR      72  66  83 SE3       30.04F
BRANSON        FAIR      77  68  73 CALM      30.07F

......SURROUNDING SGF CWA......

CITY           SKY/WX    TMP DP  RH WIND       PRES   REMARKS
CHANUTE        FAIR      78  67  68 SE7       30.01F
PARSONS        FAIR      79  68  69 SE3       30.01F
COFFEYVILLE    FAIR      80  69  69 SE8       30.00R
EMPORIA        FAIR      79  67  66 SE13      30.00F
GROVE OK       FAIR      79  70  73 SE3       30.03F
ROGERS AR      FAIR      77  68  73 SE3       30.07F
SILOAM SPRINGS FAIR      72  63  73 E3        30.06F
HARRISON AR    FAIR      75  71  87 CALM      30.07F
NEAR YELLVILLE FAIR      75  64  69 CALM      30.05F

......KANSAS AND MISSOURI......

CITY           SKY/WX    TMP DP  RH WIND       PRES   REMARKS
KANSAS CTY INT MOCLDY    76  71  85 E9        30.02F
DOWNTOWN KC    FAIR      79  73  82 E9        30.01F
COLUMBIA       FAIR      71  68  90 SE6       30.05F
SEDALIA        FAIR      74  68  81 SE5       30.04F
ST JOSEPH      FAIR      74  70  87 E6        30.02F
ST LOUIS       FAIR      75  69  81 CALM      30.06S
SPIRIT OF STL  FAIR      71  69  93 CALM      30.04F
KIRKSVILLE     FAIR      72  70  93 NE6       30.08F
WICHITA        MOCLDY    80  64  58 S13       29.98S
TOPEKA         FAIR      80  74  81 E8        30.00F
OLATHE         FAIR      77  73  87 E7        30.02F

......TENNESSEE......

CITY           SKY/WX    TMP DP  RH WIND       PRES   REMARKS
MEMPHIS        FAIR      79  66  64 CALM      30.04R
NASHVILLE      FAIR      75  71  87 CALM      30.04F

......ARKANSAS.......

CITY           SKY/WX    TMP DP  RH WIND       PRES   REMARKS
FAYETTEVILLE   FAIR      70  69  97 CALM      30.06F
FT SMITH       FAIR      79  73  82 E3        30.01F
LITTLE ROCK    FAIR      76  70  82 CALM      30.02F

......OKLAHOMA.......

CITY           SKY/WX    TMP DP  RH WIND       PRES   REMARKS
TULSA          FAIR      83  68  60 S9        29.98F
PONCA CITY     FAIR      83  65  54 S9        29.98F
MCALESTER      FAIR      74  68  81 SE3       30.02F
OKLAHOMA CITY  MOCLDY    76  65  68 S7        30.01S

......IOWA............

CITY           SKY/WX    TMP DP  RH WIND       PRES   REMARKS
DES MOINES     FAIR      71  67  87 E5        30.09R
QUAD CITIES    FAIR      64  61  90 CALM      30.11S

......ILLINOIS........

CITY           SKY/WX    TMP DP  RH WIND       PRES   REMARKS
QUINCY         MOCLDY    74  72  93 E5        30.06F FOG
CHICAGO        FAIR      68  58  70 NE5       30.13S




USA.gov is the U.S. government's official web portal to all federal, state and local government web resources and services.